Location: C�mpuri de-Sus
(45.9500°N, 22.5500°E)
Time: 13:36:01
(UTC+00:00)

Cosmos 1758 Rocket - Pass Details

Date: 24 October 2021
Orbit: 603 x 635 km, 82.5° (Epoch: 06 December)

Event Time Altitude Azimuth Distance (km) Brightness Sun altitude
Rises 16:37:06 0° 359° (N) 2,868 6.9 -12.6°
Reaches altitude 10° 16:39:32 10° 10° (N) 1,961 6.0 -13.0°
Maximum altitude 16:43:24 31° 74° (ENE) 1,065 4.2 -13.7°
Enters shadow 16:46:56 12° 135° (SE) 1,833 5.6 -14.3°
